Overview Statistics Trail Chart Weather Telemetry Raw packets
 

This is the latest recevied weather packets stored in our database for station/object KI4NG. If no packets are shown the sender has not sent any weather packets the latest 10 day(s).

<< 70 71 72 73 74 75 76 >>
Time Temp. Humidity Pressure Rain* Wind** Luminosity Snow
1788123032 27.78° C 70% 1021.4 hPa 0 mm - 126 W/m² -
1788122730 27.78° C 72% 1021.5 hPa 0 mm - 147 W/m² -
1788122425 27.22° C 73% 1021.5 hPa 0 mm - 155 W/m² -
1788122121 27.22° C 73% 1021.6 hPa 0 mm - 167 W/m² -
1788121816 27.22° C 74% 1021.9 hPa 0 mm - 174 W/m² -
1788121516 27.22° C 73% 1021.8 hPa 0 mm - 179 W/m² -
1788121212 27.22° C 72% 1022 hPa 0 mm - 168 W/m² -
1788120914 27.78° C 70% 1022 hPa 0 mm - 157 W/m² -
1788120606 27.78° C 71% 1022 hPa 0 mm - 167 W/m² -
1788120301 27.78° C 73% 1021.9 hPa 0 mm - 172 W/m² -
1788120000 27.22° C 70% 1022.2 hPa 0 mm - 168 W/m² -
1788119696 27.22° C 75% 1022.5 hPa 0 mm - 140 W/m² -
1788119394 27.22° C 75% 1022.7 hPa 0 mm - 124 W/m² -
1788119093 27.22° C 76% 1022.3 hPa 0 mm - 120 W/m² -
1788118788 27.22° C 76% 1022.4 hPa 0 mm - 124 W/m² -
1788118487 27.22° C 75% 1022.7 hPa 0 mm - 133 W/m² -
1788118182 27.78° C 76% 1022.5 hPa 0 mm - 145 W/m² -
1788117878 27.78° C 75% 1022.7 hPa 0 mm - 161 W/m² -
1788117573 28.33° C 76% 1022.7 hPa 0 mm - 190 W/m² -
1788117272 28.33° C 75% 1022.9 hPa 0 mm - 203 W/m² -
1788116969 28.89° C 71% 1022.5 hPa 0 mm - 197 W/m² -
1788116663 29.44° C 65% 1023 hPa 0 mm - 204 W/m² -
1788116362 29.44° C 63% 1022.5 hPa 0 mm - 216 W/m² -
1788116058 30° C 63% 1022.7 hPa 0 mm - 228 W/m² -
1788115753 30° C 64% 1022.5 hPa 0 mm - 325 W/m² -

* Rain latest hour (hover to see other rain measurements)
** Current wind speed in m/s (hover to see current wind gust speed)